User: anonymous   Login
Location: Pine Mountain Observatory
(43.7910°N, 120.9377°W)
Time: 19:42:31
(UTC-07:00)
Language:

Cosmos 1867 - Orbit

View from above orbital plane
View from above orbital plane
View from above satellite
View from above satellite

Ground track
Ground track

The orbit data is extracted from the following two-line orbital elements,

1 18187U 87060A   16177.13369733 -.00000074  00000-0  10065-4 0  9991
2 18187  65.0095 148.0467 0020881 266.8239  93.0456 14.31076150512909
Epoch (UTC): 25 June 2016 03:12:31
Eccentricity: 0.0020881
inclination: 65.0095°
perigee height: 773 km
apogee height: 803 km
right ascension of ascending node: 148.0467°
argument of perigee: 266.8239°
revolutions per day: 14.31076150
mean anomaly at epoch: 93.0456°
orbit number at epoch: 51290

The dashed part of the orbit path shows where the satellite is in the earth's shadow,  

DLR